"read_dt","SO2 (ppb)","flags","PMT voltage (V)","lamp voltage (V)","lamp intensity (Hz)","internal temp (C)","react chamber temp (C)","sample flow (l/min)","pres (mmHg)","SO2 bkg (ppb)","SO2 coefficient"
2014-04-30 00:00:00,3195E-2,5C000400,-0724,1039,10091,022.8,045.1,0.166,757.4,01.16,0.508
2014-04-30 00:01:00,3225E-2,5C000400,-0724,1039,10128,022.8,045.2,0.166,757.3,01.16,0.508
2014-04-30 00:02:00,3210E-2,5C000400,-0724,1039,10175,022.8,045.1,0.166,757.3,01.16,0.508
2014-04-30 00:03:00,3237E-2,5C000400,-0724,1040,10178,022.8,045.1,0.166,757.3,01.16,0.508
2014-04-30 00:04:00,3232E-2,5C000400,-0724,1038,10266,022.8,045.2,0.166,757.3,01.16,0.508
2014-04-30 00:05:00,3220E-2,5C000400,-0724,1038,10095,022.8,045.1,0.166,757.3,01.16,0.508
2014-04-30 00:06:00,3256E-2,5C000400,-0724,1039,10192,022.8,045.1,0.166,757.4,01.16,0.508
2014-04-30 00:07:00,3292E-2,5C000400,-0724,1039,10040,022.8,045.2,0.166,757.4,01.16,0.508
2014-04-30 00:08:00,3245E-2,5C000400,-0724,1039,10053,022.8,045.2,0.166,757.3,01.16,0.508
2014-04-30 00:09:00,3233E-2,5C000400,-0724,1039,10212,022.8,045.1,0.166,757.2,01.16,0.508
2014-04-30 00:10:00,3242E-2,5C000400,-0724,1039,10125,022.8,045.1,0.166,757.3,01.16,0.508
2014-04-30 00:11:00,3227E-2,5C000400,-0724,1039,9993,022.8,045.2,0.166,757.3,01.16,0.508
2014-04-30 00:12:00,3211E-2,5C000400,-0724,1039,10207,022.8,045.1,0.166,757.3,01.16,0.508
2014-04-30 00:13:00,3269E-2,5C000400,-0724,1039,10160,022.8,045.2,0.166,757.3,01.16,0.508
2014-04-30 00:14:00,3254E-2,5C000410,-0724,1038,9968,022.8,045.1,0.166,757.3,01.16,0.508
2014-04-30 00:15:00,3252E-2,5C000400,-0724,1039,10165,022.8,045.1,0.166,757.4,01.16,0.508
2014-04-30 00:16:00,3215E-2,5C000400,-0724,1037,10212,022.8,045.2,0.166,757.4,01.16,0.508
2014-04-30 00:17:00,3251E-2,5C000400,-0724,1038,10102,022.8,045.2,0.166,757.3,01.16,0.508
2014-04-30 00:18:00,3216E-2,5C000400,-0724,1038,10201,022.8,045.2,0.166,757.3,01.16,0.508
2014-04-30 00:19:00,3251E-2,5C000410,-0724,1037,10134,022.8,045.2,0.166,757.4,01.16,0.508
2014-04-30 00:20:00,3210E-2,5C000400,-0724,1039,9937,022.8,045.1,0.166,757.3,01.16,0.508
2014-04-30 00:21:00,3197E-2,5C000400,-0724,1038,10229,022.8,045.1,0.166,757.4,01.16,0.508
2014-04-30 00:22:00,3230E-2,5C000400,-0724,1037,10106,022.8,045.1,0.166,757.4,01.16,0.508
2014-04-30 00:23:00,3192E-2,5C000400,-0724,1036,10215,022.8,045.2,0.166,757.4,01.16,0.508
2014-04-30 00:24:00,3205E-2,5C000400,-0724,1036,10204,022.8,045.2,0.166,757.3,01.16,0.508
2014-04-30 00:25:00,3253E-2,5C000400,-0724,1034,10216,022.8,045.1,0.166,757.4,01.16,0.508
2014-04-30 00:26:00,3269E-2,5C000400,-0724,1034,10268,022.8,045.2,0.166,757.4,01.16,0.508
2014-04-30 00:27:00,3205E-2,5C000400,-0724,1034,10235,022.8,045.2,0.166,757.3,01.16,0.508
2014-04-30 00:28:00,3225E-2,5C000400,-0724,1033,10193,022.8,045.2,0.166,757.4,01.16,0.508
2014-04-30 00:29:00,3232E-2,5C000400,-0724,1032,10225,022.8,045.2,0.166,757.4,01.16,0.508
2014-04-30 00:30:00,3236E-2,5C000400,-0724,1032,10140,022.8,045.2,0.166,757.4,01.16,0.508
2014-04-30 00:31:00,3220E-2,5C000400,-0724,1030,10129,022.8,045.2,0.166,757.4,01.16,0.508
2014-04-30 00:32:00,3220E-2,5C000400,-0724,1030,10170,022.8,045.2,0.166,757.4,01.16,0.508
2014-04-30 00:33:00,3176E-2,5C000400,-0724,1030,10238,022.9,045.2,0.166,757.4,01.16,0.508
2014-04-30 00:34:00,3204E-2,5C000400,-0724,1030,10283,022.8,045.2,0.166,757.4,01.16,0.508
2014-04-30 00:35:00,3206E-2,5C000400,-0724,1028,10332,022.8,045.2,0.166,757.4,01.16,0.508
2014-04-30 00:36:00,3173E-2,5C000400,-0724,1029,10298,022.8,045.2,0.166,757.4,01.16,0.508
2014-04-30 00:37:00,3233E-2,5C000400,-0724,1028,10512,022.8,045.2,0.166,757.4,01.16,0.508
2014-04-30 00:38:00,3234E-2,5C000400,-0724,1028,10252,022.8,045.2,0.166,757.4,01.16,0.508
2014-04-30 00:39:00,3193E-2,5C000400,-0724,1029,10251,022.8,045.2,0.166,757.3,01.16,0.508
2014-04-30 00:40:00,3199E-2,5C000400,-0724,1027,10335,022.9,045.1,0.166,757.3,01.16,0.508
2014-04-30 00:41:00,3192E-2,5C000400,-0724,1026,10153,022.9,045.2,0.166,757.4,01.16,0.508
2014-04-30 00:42:00,3198E-2,5C000400,-0724,1026,10320,022.9,045.2,0.166,757.4,01.16,0.508
2014-04-30 00:43:00,3197E-2,5C000400,-0724,1026,10289,022.9,045.2,0.166,757.4,01.16,0.508
2014-04-30 00:44:00,3214E-2,5C000400,-0724,1025,10395,022.8,045.2,0.166,757.3,01.16,0.508
2014-04-30 00:45:00,3152E-2,5C000400,-0724,1025,10190,022.8,045.1,0.166,757.3,01.16,0.508
2014-04-30 00:46:00,3160E-2,5C000400,-0724,1025,10063,022.9,045.1,0.166,757.4,01.16,0.508
2014-04-30 00:47:00,3220E-2,5C000400,-0724,1026,10312,022.8,045.1,0.166,757.4,01.16,0.508
2014-04-30 00:48:00,3179E-2,5C000400,-0724,1024,10316,022.8,045.2,0.166,757.4,01.16,0.508
2014-04-30 00:49:00,3152E-2,5C000400,-0724,1023,10250,022.9,045.2,0.166,757.4,01.16,0.508
2014-04-30 00:50:00,3168E-2,5C000400,-0724,1024,10444,022.9,045.1,0.166,757.4,01.16,0.508
2014-04-30 00:51:00,3145E-2,5C000400,-0724,1025,10123,022.9,045.2,0.166,757.4,01.16,0.508
2014-04-30 00:52:00,3159E-2,5C000400,-0724,1025,10331,022.9,045.2,0.166,757.4,01.16,0.508
2014-04-30 00:53:00,3233E-2,5C000400,-0724,1024,10380,022.9,045.1,0.166,757.3,01.16,0.508
2014-04-30 00:54:00,3159E-2,5C000400,-0724,1023,10187,022.9,045.1,0.166,757.3,01.16,0.508
2014-04-30 00:55:00,3157E-2,5C000400,-0724,1025,10286,022.9,045.1,0.166,757.3,01.16,0.508
2014-04-30 00:56:00,3179E-2,5C000400,-0724,1023,10148,022.9,045.1,0.166,757.3,01.16,0.508
2014-04-30 00:57:00,3140E-2,5C000400,-0724,1024,10261,022.9,045.1,0.166,757.4,01.16,0.508
2014-04-30 00:58:00,3146E-2,5C000400,-0724,1024,10213,022.9,045.2,0.166,757.4,01.16,0.508
2014-04-30 00:59:00,3173E-2,5C000400,-0724,1024,10255,022.9,045.1,0.166,757.3,01.16,0.508
2014-04-30 01:00:00,3177E-2,5C000400,-0724,1023,10448,022.9,045.2,0.166,757.3,01.16,0.508
2014-04-30 01:01:00,3180E-2,5C000400,-0724,1023,10182,022.9,045.2,0.166,757.3,01.16,0.508
2014-04-30 01:02:00,3179E-2,5C000400,-0724,1024,10401,022.9,045.1,0.166,757.3,01.16,0.508
2014-04-30 01:03:00,3124E-2,5C000400,-0724,1022,10195,022.9,045.1,0.166,757.3,01.16,0.508
2014-04-30 01:04:00,3116E-2,5C000400,-0724,1020,10228,022.9,045.1,0.166,757.3,01.16,0.508
2014-04-30 01:05:00,3150E-2,5C000400,-0724,1020,10220,022.9,045.2,0.166,757.3,01.16,0.508
2014-04-30 01:06:00,3107E-2,5C000400,-0724,1021,10292,022.9,045.2,0.166,757.3,01.16,0.508
2014-04-30 01:07:00,3129E-2,5C000400,-0724,1020,10253,022.9,045.2,0.166,757.3,01.16,0.508
2014-04-30 01:08:00,3119E-2,5C000400,-0724,1020,10387,022.9,045.1,0.166,757.3,01.16,0.508
2014-04-30 01:09:00,3148E-2,5C000400,-0724,1020,10301,022.9,045.1,0.166,757.2,01.16,0.508
2014-04-30 01:10:00,3122E-2,5C000400,-0724,1020,10355,022.9,045.2,0.166,757.3,01.16,0.508
2014-04-30 01:11:00,3113E-2,5C000400,-0724,1020,10179,022.9,045.2,0.166,757.2,01.16,0.508
2014-04-30 01:12:00,3171E-2,5C000400,-0724,1020,10417,022.9,045.1,0.166,757.2,01.16,0.508
2014-04-30 01:13:00,3139E-2,5C000400,-0724,1020,10357,022.9,045.2,0.166,757.2,01.16,0.508
2014-04-30 01:14:00,3176E-2,5C000400,-0724,1021,10347,022.9,045.2,0.166,757.3,01.16,0.508
2014-04-30 01:15:00,3150E-2,5C000400,-0724,1020,10277,022.9,045.2,0.166,757.2,01.16,0.508
2014-04-30 01:16:00,3119E-2,5C000400,-0724,1021,10194,022.9,045.2,0.166,757.2,01.16,0.508
2014-04-30 01:17:00,3190E-2,5C000400,-0724,1020,10320,022.9,045.2,0.166,757.2,01.16,0.508
2014-04-30 01:18:00,3095E-2,5C000400,-0724,1020,10226,022.9,045.1,0.166,757.2,01.16,0.508
2014-04-30 01:19:00,3215E-2,5C000400,-0724,1021,10460,023.0,045.1,0.166,757.2,01.16,0.508
2014-04-30 01:20:00,3107E-2,5C000400,-0724,1020,10432,023.0,045.1,0.166,757.2,01.16,0.508
2014-04-30 01:21:00,3142E-2,5C000400,-0724,1020,10503,023.0,045.1,0.166,757.2,01.16,0.508
2014-04-30 01:22:00,3132E-2,5C000400,-0724,1019,10377,022.9,045.2,0.166,757.3,01.16,0.508
2014-04-30 01:23:00,3127E-2,5C000400,-0724,1019,10311,023.0,045.2,0.166,757.2,01.16,0.508
2014-04-30 01:24:00,3141E-2,5C000400,-0724,1019,10329,023.0,045.2,0.166,757.2,01.16,0.508
2014-04-30 01:25:00,3151E-2,5C000400,-0724,1019,10288,023.0,045.2,0.166,757.1,01.16,0.508
2014-04-30 01:26:00,3155E-2,5C000400,-0724,1020,10375,023.0,045.1,0.166,757.2,01.16,0.508
2014-04-30 01:27:00,3178E-2,5C000400,-0724,1019,10232,023.0,045.2,0.165,757.2,01.16,0.508
2014-04-30 01:28:00,3147E-2,5C000400,-0724,1020,10359,023.0,045.1,0.165,757.2,01.16,0.508
2014-04-30 01:29:00,3178E-2,5C000400,-0724,1019,10330,023.0,045.2,0.166,757.3,01.16,0.508
2014-04-30 01:30:00,3195E-2,5C000400,-0724,1020,10158,023.0,045.2,0.165,757.3,01.16,0.508
2014-04-30 01:31:00,3169E-2,5C000400,-0724,1021,10388,023.0,045.2,0.166,757.2,01.16,0.508
2014-04-30 01:32:00,3183E-2,5C000400,-0724,1020,10449,023.0,045.1,0.165,757.2,01.16,0.508
2014-04-30 01:33:00,3142E-2,5C000400,-0724,1021,10346,023.0,045.1,0.166,757.3,01.16,0.508
2014-04-30 01:34:00,3180E-2,5C000400,-0724,1021,10340,023.0,045.1,0.165,757.4,01.16,0.508
2014-04-30 01:35:00,3142E-2,5C000400,-0724,1020,10328,023.0,045.1,0.165,757.3,01.16,0.508
2014-04-30 01:36:00,3019E-2,5C000400,-0724,1019,10296,023.0,045.1,0.165,757.3,01.16,0.508
2014-04-30 01:37:00,2944E-2,5C000400,-0724,1019,10440,023.0,045.2,0.165,757.3,01.16,0.508
2014-04-30 01:38:00,3060E-2,5C000400,-0724,1019,10352,023.0,045.1,0.165,757.3,01.16,0.508
2014-04-30 01:39:00,3061E-2,5C000400,-0724,1020,10391,023.0,045.2,0.165,757.4,01.16,0.508
2014-04-30 01:40:00,3097E-2,5C000400,-0724,1020,10285,023.0,045.2,0.165,757.3,01.16,0.508
2014-04-30 01:41:00,3055E-2,5C000400,-0724,1020,10181,023.0,045.1,0.165,757.3,01.16,0.508
2014-04-30 01:42:00,3047E-2,5C000400,-0724,1020,10235,023.0,045.2,0.165,757.3,01.16,0.508
2014-04-30 01:43:00,3094E-2,5C000400,-0724,1019,10188,023.0,045.2,0.165,757.3,01.16,0.508
2014-04-30 01:44:00,3022E-2,5C000400,-0724,1020,10202,023.0,045.2,0.165,757.4,01.16,0.508
2014-04-30 01:45:00,3042E-2,5C000400,-0724,1019,10245,023.0,045.2,0.165,757.3,01.16,0.508
2014-04-30 01:46:00,3021E-2,5C000400,-0724,1020,10275,023.0,045.1,0.165,757.3,01.16,0.508
2014-04-30 01:47:00,3053E-2,5C000400,-0724,1021,10444,023.1,045.1,0.165,757.4,01.16,0.508
2014-04-30 01:48:00,3030E-2,5C000400,-0724,1019,10365,023.1,045.2,0.165,757.4,01.16,0.508
2014-04-30 01:49:00,3057E-2,5C000400,-0724,1020,10321,023.1,045.2,0.165,757.4,01.16,0.508
2014-04-30 01:50:00,3068E-2,5C000400,-0724,1019,10365,023.1,045.2,0.165,757.4,01.16,0.508
2014-04-30 01:51:00,3072E-2,5C000400,-0724,1020,10466,023.1,045.2,0.165,757.3,01.16,0.508
2014-04-30 01:52:00,3031E-2,5C000400,-0724,1020,10307,023.1,045.1,0.165,757.3,01.16,0.508
2014-04-30 01:53:00,2998E-2,5C000400,-0724,1019,10326,023.1,045.1,0.165,757.4,01.16,0.508
2014-04-30 01:54:00,3017E-2,5C000400,-0724,1020,10229,023.1,045.2,0.165,757.3,01.16,0.508
2014-04-30 01:55:00,3056E-2,5C000400,-0724,1021,10238,023.1,045.1,0.165,757.3,01.16,0.508
2014-04-30 01:56:00,3039E-2,5C000400,-0724,1019,10337,023.1,045.1,0.165,757.4,01.16,0.508
2014-04-30 01:57:00,3064E-2,5C000400,-0724,1021,10402,023.1,045.1,0.165,757.4,01.16,0.508
2014-04-30 01:58:00,3079E-2,5C000400,-0724,1022,10331,023.1,045.2,0.165,757.4,01.16,0.508
2014-04-30 01:59:00,3051E-2,5C000400,-0724,1022,10492,023.1,045.2,0.165,757.4,01.16,0.508
2014-04-30 02:00:00,3025E-2,5C000400,-0724,1021,10289,023.1,045.1,0.165,757.4,01.16,0.508
2014-04-30 02:01:00,3066E-2,5C000400,-0724,1022,10458,023.1,045.1,0.165,757.4,01.16,0.508
2014-04-30 02:02:00,3076E-2,5C000400,-0724,1021,10188,023.1,045.2,0.165,757.4,01.16,0.508
2014-04-30 02:03:00,3026E-2,5C000400,-0724,1022,10233,023.1,045.2,0.165,757.4,01.16,0.508
2014-04-30 02:04:00,3099E-2,5C000400,-0724,1023,10133,023.1,045.2,0.165,757.4,01.16,0.508
2014-04-30 02:05:00,3045E-2,5C000400,-0724,1023,10232,023.1,045.2,0.165,757.4,01.16,0.508
2014-04-30 02:06:00,3105E-2,5C000400,-0724,1023,10247,023.1,045.1,0.165,757.4,01.16,0.508
2014-04-30 02:07:00,3076E-2,5C000400,-0724,1024,10269,023.1,045.1,0.165,757.4,01.16,0.508
2014-04-30 02:08:00,3093E-2,5C000400,-0724,1023,10289,023.1,045.2,0.165,757.4,01.16,0.508
2014-04-30 02:09:00,3108E-2,5C000400,-0724,1022,10216,023.1,045.1,0.165,757.4,01.16,0.508
2014-04-30 02:10:00,3075E-2,5C000400,-0724,1021,10461,023.1,045.2,0.165,757.4,01.16,0.508
2014-04-30 02:11:00,3072E-2,5C000400,-0724,1021,10312,023.1,045.1,0.165,757.4,01.16,0.508
2014-04-30 02:12:00,3115E-2,5C000400,-0724,1021,10358,023.2,045.2,0.165,757.4,01.16,0.508
2014-04-30 02:13:00,3086E-2,5C000400,-0724,1022,10217,023.2,045.1,0.165,757.4,01.16,0.508
2014-04-30 02:14:00,3099E-2,5C000410,-0724,1024,9986,023.1,045.1,0.165,757.4,01.16,0.508
2014-04-30 02:15:00,3079E-2,5C000400,-0724,1023,10208,023.1,045.2,0.165,757.3,01.16,0.508
2014-04-30 02:16:00,3090E-2,5C000400,-0724,1023,10325,023.1,045.1,0.165,757.4,01.16,0.508
2014-04-30 02:17:00,3126E-2,5C000400,-0724,1023,10380,023.1,045.2,0.165,757.4,01.16,0.508
2014-04-30 02:18:00,3142E-2,5C000400,-0724,1024,10320,023.2,045.2,0.165,757.4,01.16,0.508
2014-04-30 02:19:00,3148E-2,5C000400,-0724,1024,10340,023.2,045.2,0.165,757.4,01.16,0.508
2014-04-30 02:20:00,3104E-2,5C000400,-0724,1023,10251,023.2,045.1,0.165,757.4,01.16,0.508
2014-04-30 02:21:00,3127E-2,5C000400,-0724,1023,10341,023.2,045.2,0.165,757.4,01.16,0.508
2014-04-30 02:22:00,3108E-2,5C000400,-0724,1023,10311,023.2,045.1,0.165,757.4,01.16,0.508
2014-04-30 02:23:00,3140E-2,5C000400,-0724,1018,10328,023.2,045.2,0.165,757.4,01.16,0.508
2014-04-30 02:24:00,3059E-2,5C000400,-0724,1017,10452,023.2,045.2,0.165,757.4,01.16,0.508
2014-04-30 02:25:00,3052E-2,5C000400,-0724,1018,10426,023.2,045.1,0.165,757.3,01.16,0.508
2014-04-30 02:26:00,3048E-2,5C000400,-0724,1017,10338,023.2,045.2,0.165,757.4,01.16,0.508
2014-04-30 02:27:00,3083E-2,5C000400,-0724,1017,10506,023.2,045.2,0.165,757.4,01.16,0.508
2014-04-30 02:28:00,3017E-2,5C000400,-0724,1017,10411,023.2,045.2,0.165,757.4,01.16,0.508
2014-04-30 02:29:00,3057E-2,5C000400,-0724,1018,10462,023.2,045.2,0.165,757.3,01.16,0.508
2014-04-30 02:30:00,3030E-2,5C000400,-0724,1018,10359,023.2,045.1,0.165,757.4,01.16,0.508
2014-04-30 02:31:00,3055E-2,5C000400,-0724,1018,10185,023.2,045.1,0.165,757.3,01.16,0.508
2014-04-30 02:32:00,3088E-2,5C000400,-0724,1019,10357,023.2,045.1,0.165,757.4,01.16,0.508
2014-04-30 02:33:00,3104E-2,5C000400,-0724,1018,10321,023.3,045.2,0.165,757.4,01.16,0.508
2014-04-30 02:34:00,3083E-2,5C000400,-0724,1018,10253,023.2,045.2,0.165,757.4,01.16,0.508
2014-04-30 02:35:00,3055E-2,5C000400,-0724,1019,10104,023.2,045.2,0.165,757.3,01.16,0.508
2014-04-30 02:36:00,3066E-2,5C000400,-0724,1019,10469,023.2,045.1,0.165,757.4,01.16,0.508
2014-04-30 02:37:00,3082E-2,5C000400,-0724,1018,10433,023.2,045.2,0.165,757.4,01.16,0.508
2014-04-30 02:38:00,3088E-2,5C000400,-0724,1019,10257,023.2,045.2,0.165,757.4,01.16,0.508
2014-04-30 02:39:00,3077E-2,5C000400,-0724,1018,10421,023.3,045.2,0.165,757.4,01.16,0.508
2014-04-30 02:40:00,3128E-2,5C000400,-0724,1019,10228,023.3,045.2,0.165,757.4,01.16,0.508
2014-04-30 02:41:00,2942E-2,5C000410,-0724,1037,9894,023.3,045.2,0.165,757.4,01.16,0.508
2014-04-30 02:42:00,2939E-2,5C000400,-0724,1052,9888,023.3,045.2,0.165,757.4,01.16,0.508
2014-04-30 02:43:00,2934E-2,5C000410,-0724,1053,9892,023.3,045.2,0.165,757.4,01.16,0.508
2014-04-30 02:44:00,2941E-2,5C000400,-0724,1055,10006,023.3,045.2,0.165,757.4,01.16,0.508
2014-04-30 02:45:00,2971E-2,5C000400,-0724,1054,9986,023.3,045.2,0.165,757.4,01.16,0.508
2014-04-30 02:46:00,2944E-2,5C000400,-0724,1053,10001,023.3,045.2,0.165,757.4,01.16,0.508
2014-04-30 02:47:00,2770E-2,5C000400,-0724,1044,10029,023.3,045.2,0.165,757.4,01.16,0.508
2014-04-30 02:48:00,2770E-2,5C000410,-0724,1046,10125,023.3,045.2,0.165,757.4,01.16,0.508
2014-04-30 02:49:00,2736E-2,5C000400,-0724,1046,10037,023.3,045.2,0.165,757.4,01.16,0.508
2014-04-30 02:50:00,2739E-2,5C000410,-0724,1045,9912,023.3,045.2,0.165,757.4,01.16,0.508
2014-04-30 02:51:00,2740E-2,5C000400,-0724,1047,10016,023.3,045.2,0.165,757.4,01.16,0.508
2014-04-30 02:52:00,2783E-2,5C000400,-0724,1047,10055,023.3,045.2,0.164,757.4,01.16,0.508
2014-04-30 02:53:00,2760E-2,5C000400,-0724,1047,10006,023.3,045.2,0.164,757.4,01.16,0.508
2014-04-30 02:54:00,2745E-2,5C000400,-0724,1049,10125,023.4,045.2,0.165,757.4,01.16,0.508
2014-04-30 02:55:00,2734E-2,5C000400,-0724,1047,10076,023.4,045.2,0.164,757.4,01.16,0.508
2014-04-30 02:56:00,2714E-2,5C000400,-0724,1047,10113,023.4,045.2,0.164,757.4,01.16,0.508
2014-04-30 02:57:00,2733E-2,5C000400,-0724,1047,10127,023.4,045.2,0.164,757.5,01.16,0.508
2014-04-30 02:58:00,2778E-2,5C000410,-0724,1046,10001,023.4,045.2,0.164,757.4,01.16,0.508
2014-04-30 02:59:00,2775E-2,5C000400,-0724,1045,10088,023.4,045.2,0.164,757.4,01.16,0.508
2014-04-30 03:00:00,2726E-2,5C000410,-0724,1046,10075,023.4,045.2,0.164,757.4,01.16,0.508
2014-04-30 03:01:00,2762E-2,5C000400,-0724,1045,10039,023.4,045.2,0.164,757.4,01.16,0.508
2014-04-30 03:02:00,2743E-2,5C000400,-0724,1047,10104,023.4,045.2,0.164,757.4,01.16,0.508
2014-04-30 03:03:00,2768E-2,5C000400,-0724,1046,9951,023.4,045.2,0.164,757.4,01.16,0.508
2014-04-30 03:04:00,2777E-2,5C000410,-0724,1047,10020,023.4,045.2,0.164,757.4,01.16,0.508
2014-04-30 03:05:00,2786E-2,5C000410,-0724,1047,9942,023.4,045.2,0.164,757.4,01.16,0.508
2014-04-30 03:06:00,2758E-2,5C000400,-0724,1046,9959,023.4,045.2,0.164,757.6,01.16,0.508
2014-04-30 03:07:00,2742E-2,5C000410,-0724,1046,10008,023.4,045.2,0.164,757.5,01.16,0.508
2014-04-30 03:08:00,2789E-2,5C000400,-0724,1047,10099,023.4,045.2,0.164,757.4,01.16,0.508
2014-04-30 03:09:00,2740E-2,5C000400,-0724,1047,10094,023.4,045.2,0.164,757.4,01.16,0.508
2014-04-30 03:10:00,2788E-2,5C000400,-0724,1047,10121,023.4,045.2,0.164,757.4,01.16,0.508
2014-04-30 03:11:00,2796E-2,5C000410,-0724,1046,9980,023.4,045.2,0.164,757.4,01.16,0.508
2014-04-30 03:12:00,2754E-2,5C000410,-0724,1046,9972,023.4,045.2,0.164,757.5,01.16,0.508
2014-04-30 03:13:00,2724E-2,5C000400,-0724,1045,10137,023.4,045.2,0.164,757.4,01.16,0.508
2014-04-30 03:14:00,2763E-2,5C000400,-0724,1044,10003,023.4,045.2,0.164,757.4,01.16,0.508
2014-04-30 03:15:00,2718E-2,5C000400,-0724,1044,10090,023.5,045.2,0.164,757.5,01.16,0.508
2014-04-30 03:16:00,2767E-2,5C000400,-0724,1045,10117,023.5,045.2,0.164,757.5,01.16,0.508
2014-04-30 03:17:00,2732E-2,5C000410,-0724,1043,10222,023.5,045.2,0.164,757.4,01.16,0.508
2014-04-30 03:18:00,2772E-2,5C000400,-0724,1043,10079,023.5,045.2,0.164,757.4,01.16,0.508
2014-04-30 03:19:00,2736E-2,5C000410,-0724,1044,10129,023.5,045.2,0.164,757.4,01.16,0.508
2014-04-30 03:20:00,2791E-2,5C000400,-0724,1042,9895,023.5,045.2,0.164,757.4,01.16,0.508
2014-04-30 03:21:00,2782E-2,5C000400,-0724,1042,10167,023.5,045.2,0.164,757.4,01.16,0.508
2014-04-30 03:22:00,2763E-2,5C000400,-0724,1042,10089,023.5,045.2,0.164,757.5,01.16,0.508
2014-04-30 03:23:00,2774E-2,5C000400,-0724,1044,10085,023.5,045.2,0.164,757.4,01.16,0.508
2014-04-30 03:24:00,2789E-2,5C000400,-0724,1043,10248,023.5,045.2,0.164,757.4,01.16,0.508
2014-04-30 03:25:00,2811E-2,5C000400,-0724,1043,10178,023.5,045.2,0.164,757.4,01.16,0.508
2014-04-30 03:26:00,2806E-2,5C000400,-0724,1044,10055,023.5,045.1,0.164,757.4,01.16,0.508
2014-04-30 03:27:00,2785E-2,5C000400,-0724,1043,10141,023.5,045.2,0.164,757.5,01.16,0.508
2014-04-30 03:28:00,2779E-2,5C000400,-0724,1043,10133,023.5,045.2,0.164,757.4,01.16,0.508
2014-04-30 03:29:00,2783E-2,5C000400,-0724,1043,10108,023.5,045.2,0.164,757.4,01.16,0.508
2014-04-30 03:30:00,2820E-2,5C000400,-0724,1043,10216,023.5,045.2,0.164,757.5,01.16,0.508
2014-04-30 03:31:00,2764E-2,5C000400,-0724,1043,10015,023.6,045.2,0.164,757.5,01.16,0.508
2014-04-30 03:32:00,2784E-2,5C000400,-0724,1043,10075,023.6,045.2,0.164,757.4,01.16,0.508
2014-04-30 03:33:00,2802E-2,5C000400,-0724,1043,10135,023.6,045.2,0.164,757.4,01.16,0.508
2014-04-30 03:34:00,2842E-2,5C000400,-0724,1044,10168,023.6,045.2,0.164,757.4,01.16,0.508
2014-04-30 03:35:00,2802E-2,5C000410,-0724,1042,9893,023.6,045.2,0.164,757.5,01.16,0.508
2014-04-30 03:36:00,2824E-2,5C000400,-0724,1043,10218,023.6,045.2,0.164,757.5,01.16,0.508
2014-04-30 03:37:00,2834E-2,5C000410,-0724,1044,10151,023.6,045.2,0.164,757.5,01.16,0.508
2014-04-30 03:38:00,2806E-2,5C000400,-0724,1043,10146,023.6,045.2,0.164,757.5,01.16,0.508
2014-04-30 03:39:00,2805E-2,5C000410,-0724,1042,10152,023.6,045.2,0.164,757.5,01.16,0.508
2014-04-30 03:40:00,2816E-2,5C000400,-0724,1043,10038,023.6,045.2,0.164,757.4,01.16,0.508
2014-04-30 03:41:00,2825E-2,5C000400,-0724,1043,10072,023.6,045.2,0.164,757.5,01.16,0.508
2014-04-30 03:42:00,2828E-2,5C000400,-0724,1043,10074,023.6,045.2,0.164,757.5,01.16,0.508
2014-04-30 03:43:00,2803E-2,5C000400,-0724,1041,9984,023.7,045.2,0.164,757.4,01.16,0.508
2014-04-30 03:44:00,2846E-2,5C000400,-0724,1043,10059,023.7,045.2,0.164,757.5,01.16,0.508
2014-04-30 03:45:00,2828E-2,5C000400,-0724,1042,10151,023.7,045.2,0.164,757.5,01.16,0.508
2014-04-30 03:46:00,2836E-2,5C000400,-0724,1043,10120,023.7,045.2,0.164,757.5,01.16,0.508
2014-04-30 03:47:00,2860E-2,5C000400,-0724,1042,10116,023.7,045.1,0.164,757.5,01.16,0.508
2014-04-30 03:48:00,2832E-2,5C000400,-0724,1042,10092,023.7,045.2,0.164,757.5,01.16,0.508
2014-04-30 03:49:00,2800E-2,5C000400,-0724,1042,10000,023.7,045.1,0.164,757.5,01.16,0.508
2014-04-30 03:50:00,2830E-2,5C000400,-0724,1041,10069,023.7,045.2,0.164,757.4,01.16,0.508
2014-04-30 03:51:00,2844E-2,5C000400,-0724,1040,10121,023.7,045.2,0.164,757.5,01.16,0.508
2014-04-30 03:52:00,2797E-2,5C000400,-0724,1040,10188,023.7,045.2,0.164,757.5,01.16,0.508
2014-04-30 03:53:00,2842E-2,5C000400,-0724,1042,10304,023.7,045.2,0.164,757.5,01.16,0.508
2014-04-30 03:54:00,2884E-2,5C000400,-0724,1042,10337,023.7,045.2,0.164,757.5,01.16,0.508
2014-04-30 03:55:00,2903E-2,5C000400,-0724,1043,9850,023.7,045.2,0.164,757.4,01.16,0.508
2014-04-30 03:56:00,2821E-2,5C000400,-0724,1041,10230,023.7,045.2,0.164,757.4,01.16,0.508
2014-04-30 03:57:00,2853E-2,5C000410,-0724,1041,10159,023.7,045.2,0.164,757.4,01.16,0.508
2014-04-30 03:58:00,2834E-2,5C000400,-0724,1041,10233,023.7,045.2,0.163,757.4,01.16,0.508
2014-04-30 03:59:00,2859E-2,5C000400,-0724,1040,10139,023.7,045.2,0.163,757.6,01.16,0.508
2014-04-30 04:00:00,2767E-2,5C000400,-0724,1039,10032,023.7,045.2,0.163,757.5,01.16,0.508
2014-04-30 04:01:00,2803E-2,5C000400,-0724,1039,10144,023.8,045.2,0.163,757.4,01.16,0.508
2014-04-30 04:02:00,2802E-2,5C000400,-0724,1040,9981,023.8,045.2,0.163,757.4,01.16,0.508
2014-04-30 04:03:00,2819E-2,5C000400,-0724,1041,9968,023.8,045.2,0.163,757.5,01.16,0.508
2014-04-30 04:04:00,2855E-2,5C000400,-0724,1040,10260,023.8,045.2,0.163,757.5,01.16,0.508
2014-04-30 04:05:00,2854E-2,5C000400,-0724,1040,10118,023.8,045.2,0.163,757.5,01.16,0.508
2014-04-30 04:06:00,2817E-2,5C000400,-0724,1040,10152,023.8,045.2,0.163,757.5,01.16,0.508
2014-04-30 04:07:00,2806E-2,5C000400,-0724,1040,10116,023.8,045.2,0.163,757.5,01.16,0.508
2014-04-30 04:08:00,2803E-2,5C000400,-0724,1039,10119,023.8,045.2,0.163,757.5,01.16,0.508
2014-04-30 04:09:00,2817E-2,5C000400,-0724,1039,10120,023.8,045.2,0.163,757.4,01.16,0.508
2014-04-30 04:10:00,2885E-2,5C000400,-0724,1039,10276,023.8,045.2,0.163,757.5,01.16,0.508
2014-04-30 04:11:00,2825E-2,5C000400,-0724,1039,10194,023.8,045.2,0.163,757.4,01.16,0.508
2014-04-30 04:12:00,2870E-2,5C000410,-0724,1037,9667,023.8,045.2,0.163,757.5,01.16,0.508
2014-04-30 04:13:00,2864E-2,5C000400,-0724,1038,10233,023.8,045.2,0.163,757.6,01.16,0.508
2014-04-30 04:14:00,2868E-2,5C000400,-0724,1038,10120,023.8,045.2,0.163,757.5,01.16,0.508
2014-04-30 04:15:00,2826E-2,5C000400,-0724,1036,10063,023.9,045.2,0.163,757.6,01.16,0.508
2014-04-30 04:16:00,2817E-2,5C000400,-0724,1037,10169,023.8,045.2,0.163,757.6,01.16,0.508
2014-04-30 04:17:00,2774E-2,5C000410,-0724,1037,9991,023.9,045.2,0.163,757.5,01.16,0.508
2014-04-30 04:18:00,2759E-2,5C000400,-0724,1037,10163,023.9,045.2,0.163,757.4,01.16,0.508
2014-04-30 04:19:00,2796E-2,5C000400,-0724,1037,10134,023.9,045.2,0.163,757.6,01.16,0.508
2014-04-30 04:20:00,2806E-2,5C000400,-0724,1037,10072,023.9,045.2,0.163,757.6,01.16,0.508